Theta_e
297 291 289 289 289 289 288 285 286 289 292 289 288 289 293 294 294 294 294 294 296 298 301 301 299 298 296 294 295 295 295 296 297 298 298 297 293 291 290 289 290 291 291 292
293 288 291 293 292 290 288 286 286 290 292 290 288 290 294 293 293 294 294 293 295 297 299 299 297 296 295 294 294 293 294 294 296 297 298 297 293 291 290 289 288 290 290 291
290 292 294 292 290 289 288 286 286 287 290 290 287 286 290 292 292 294 296 296 296 297 298 298 297 295 294 293 292 293 293 292 293 295 298 296 295 292 290 287 287 288 289 290
292 293 292 291 290 290 285 290 290 288 285 281 287 279 286 289 290 291 293 294 295 297 299 299 297 294 293 293 292 292 292 291 291 292 293 294 293 290 287 286 287 287 288 288
291 290 290 290 292 291 289 290 288 288 284 282 283 280 285 287 288 290 291 292 293 296 298 298 297 297 295 294 291 290 290 290 289 288 289 288 286 286 286 286 285 286 286 287
292 294 292 292 292 291 291 289 289 286 284 278 283 282 283 287 289 290 289 292 294 296 297 298 298 297 295 293 290 288 289 288 288 287 287 287 285 285 284 284 283 284 285 285
292 291 291 292 288 290 290 286 281 279 278 280 284 281 285 290 290 291 291 290 293 296 296 297 296 295 293 290 289 288 288 286 287 286 286 286 285 285 284 283 282 283 283 283
285 284 290 291 290 289 288 286 281 278 278 280 283 280 286 290 291 292 292 292 294 294 295 295 295 294 292 291 290 289 288 286 286 286 285 285 286 285 284 284 282 283 284 282
286 287 290 290 290 291 287 283 287 283 281 278 281 285 288 290 290 291 291 292 291 293 294 294 295 294 293 291 290 289 287 287 286 286 285 284 284 284 284 283 283 283 284 285
289 285 289 288 290 289 287 288 283 284 280 277 280 282 283 287 290 292 292 292 292 292 291 288 288 287 288 291 290 289 288 287 286 285 285 285 284 284 284 285 284 283 283 283
289 288 286 287 286 287 283 283 284 287 286 281 277 281 292 291 292 291 292 292 289 288 285 285 285 285 285 285 286 286 286 285 285 285 284 284 284 285 285 285 285 284 284 284
290 287 283 287 288 289 287 286 285 283 281 284 284 282 294 294 291 291 290 292 286 285 282 282 283 283 283 283 284 283 283 283 283 284 284 284 285 285 284 285 284 284 284 284
290 286 281 284 285 290 287 290 291 291 286 283 282 282 293 290 288 288 287 285 284 284 284 282 282 281 281 282 283 283 284 285 285 285 285 285 285 284 283 284 284 284 284 283
296 287 286 283 287 292 286 289 291 289 283 285 285 286 289 285 284 285 284 283 283 283 283 282 281 280 280 281 282 284 284 285 286 286 285 284 283 283 284 284 284 283 283 282
291 282 285 288 289 290 289 290 291 289 288 285 288 289 288 284 283 283 285 284 282 282 282 281 280 280 280 280 280 282 283 283 284 283 283 283 284 284 284 283 282 282 281 281
292 286 287 285 289 289 287 290 290 290 291 290 290 290 287 283 283 281 281 281 280 280 280 280 280 280 278 277 279 280 280 281 282 282 282 284 283 283 283 281 281 281 280 280
288 287 284 283 290 289 284 287 289 289 280 281 282 277 281 280 278 278 279 279 278 278 278 278 277 278 278 278 280 278 279 281 281 281 281 282 282 281 281 281 280 280 278 279
290 287 287 284 286 278 282 282 282 277 276 278 277 277 278 279 278 278 279 278 276 277 277 277 276 277 277 278 277 277 278 279 280 281 280 281 281 280 280 280 279 279 278 278
294 291 285 282 282 284 282 278 279 279 272 275 275 275 276 278 277 275 278 278 276 277 276 275 274 275 276 274 273 273 274 275 276 276 277 279 280 279 278 277 277 277 276 275
291 293 287 284 280 278 275 276 278 280 272 274 275 274 274 276 274 273 276 276 276 276 274 274 274 274 271 271 270 271 272 272 273 275 276 277 276 276 275 275 275 275 275 276
283 286 285 285 283 281 273 275 279 275 273 274 274 273 271 270 272 274 275 274 275 275 275 275 273 270 270 272 272 271 271 271 274 275 275 275 275 275 275 274 274 273 273 274
284 282 282 283 282 278 273 275 275 270 271 270 270 269 270 270 271 272 273 273 273 272 272 272 270 270 271 272 271 272 272 274 274 274 274 273 272 273 275 274 273 272 271 271
284 280 280 274 271 272 272 271 272 273 271 272 271 270 270 270 271 272 271 269 269 270 271 272 270 270 270 271 271 269 270 271 271 270 270 270 271 272 273 272 271 271 269 270
276 275 272 272 270 270 271 271 272 272 271 270 270 271 269 267 268 268 268 268 269 269 269 268 267 267 268 269 271 269 270 270 269 268 268 269 268 270 271 272 272 271 268 268
269 273 272 269 270 269 269 269 270 269 267 265 267 268 268 268 267 267 267 267 267 268 269 268 268 268 268 268 268 268 270 269 268 268 268 268 269 268 268 270 269 270 271 272
268 266 267 263 267 268 268 269 270 267 266 266 268 268 268 268 267 267 266 266 266 267 268 268 268 267 267 267 267 268 268 269 266 266 268 267 268 267 268 267 268 273 275 277
Wind_Speed
2 5 3 5 3 2 2 3 6 6 3 3 6 16 23 11 9 9 10 9 10 13 12 11 11 9 8 7 7 6 6 3 3 2 2 3 3 3 3 4 6 6 6 6
5 3 3 4 2 1 2 4 7 5 4 2 6 16 17 4 5 8 13 10 10 7 8 10 10 9 9 8 7 6 6 5 3 2 2 2 3 2 3 3 5 5 6 6
5 2 4 2 1 3 4 5 3 4 6 6 5 9 4 1 1 3 5 6 5 10 12 11 12 10 8 8 8 7 6 6 3 4 3 3 4 3 2 3 3 4 5 5
4 2 3 3 4 4 4 2 2 3 5 2 4 7 8 3 3 3 5 7 9 8 8 11 12 10 9 8 7 7 6 5 3 3 2 3 2 3 1 3 2 3 5 6
6 5 4 4 5 4 6 1 5 3 2 3 3 2 10 2 4 7 9 8 8 8 11 12 12 11 7 8 7 6 6 5 3 3 3 3 3 3 3 3 5 4 4 6
6 0 3 5 2 2 2 4 4 3 3 1 6 6 7 5 7 5 1 7 8 7 8 8 7 8 7 7 7 7 6 4 4 3 3 5 7 5 4 3 4 3 3 3
1 4 1 2 1 2 2 4 4 5 3 7 2 1 10 5 4 5 7 1 8 7 7 8 9 8 7 8 7 6 7 5 4 4 3 4 5 6 6 4 3 3 1 1
3 7 7 5 5 6 5 5 5 6 4 6 2 8 7 2 7 5 7 4 5 6 6 7 8 8 9 9 8 7 7 5 5 4 3 2 4 3 3 3 3 4 3 2
2 5 2 1 1 3 3 3 4 2 2 3 6 6 1 2 5 5 4 4 6 7 6 7 6 6 7 8 8 9 8 6 6 6 4 3 2 3 3 3 3 2 3 3
2 7 3 0 1 1 3 2 1 0 4 6 5 5 5 3 4 5 8 8 4 2 10 12 12 11 9 4 4 5 6 6 5 6 5 4 4 4 3 3 3 3 2 2
1 4 3 3 7 9 2 3 4 2 5 4 4 6 4 8 9 10 11 15 11 13 11 11 11 11 11 11 8 6 5 6 6 6 5 5 4 3 3 2 3 3 2 2
4 3 5 11 2 1 4 7 6 5 5 4 3 7 8 12 14 12 11 12 14 16 14 13 12 12 12 10 10 8 8 6 4 4 5 4 4 1 4 3 3 2 1 1
3 3 4 9 2 3 3 3 3 2 1 9 7 4 2 12 13 12 13 14 14 14 14 11 11 10 9 8 8 7 7 6 5 6 5 4 4 4 4 3 3 3 3 1
5 6 9 15 13 1 4 7 6 10 6 6 12 15 9 9 9 9 13 11 11 11 11 7 7 7 6 6 6 6 7 6 6 3 2 5 5 0 2 3 4 3 2 3
3 6 6 15 16 10 16 13 12 15 16 13 21 19 2 6 7 7 8 8 9 10 10 9 7 6 6 7 7 6 5 5 4 4 4 4 6 3 4 3 2 1 3 4
4 6 3 18 13 16 24 18 18 20 24 23 23 20 7 8 7 8 8 8 9 9 9 9 7 7 7 6 5 6 6 5 5 5 5 5 6 3 4 4 4 4 5 4
6 4 4 13 6 9 15 12 18 5 8 5 4 7 8 7 10 9 8 8 9 9 9 7 6 5 4 5 7 6 7 5 5 5 5 6 4 4 4 4 4 4 5 5
11 7 3 10 3 11 2 9 9 16 9 7 8 7 5 6 9 7 6 6 7 7 6 6 5 5 5 5 5 6 6 7 6 5 5 6 5 5 4 4 5 5 4 5
20 12 6 6 7 6 6 2 3 2 5 6 4 4 5 1 8 7 7 8 6 6 5 3 3 4 4 5 5 4 5 6 6 6 5 5 4 5 5 6 5 5 5 5
10 18 10 6 7 9 4 2 4 1 4 3 4 3 5 7 7 3 8 8 7 5 3 3 4 4 3 5 4 3 5 5 5 6 6 5 5 6 6 6 6 4 4 6
4 4 17 14 9 1 3 7 8 6 3 6 6 4 4 2 3 3 5 6 4 4 6 6 5 4 5 6 5 5 4 6 6 5 5 6 6 7 7 6 5 5 6 6
8 6 4 6 6 8 7 2 2 1 5 5 4 4 3 2 3 4 4 6 6 6 5 6 5 5 6 7 5 7 6 7 6 7 7 7 6 7 8 9 7 7 6 6
5 2 0 3 2 4 6 10 7 6 5 4 2 1 2 2 3 6 6 5 5 7 6 6 5 5 6 6 6 6 8 8 6 7 8 7 8 9 10 10 10 8 5 5
3 3 4 4 4 5 8 8 8 7 5 4 3 3 3 2 5 5 5 6 7 5 6 3 5 6 6 5 8 7 10 9 7 8 8 7 6 10 7 6 7 8 4 5
2 6 4 4 6 8 7 6 4 5 4 4 4 3 4 4 5 4 5 6 6 7 6 4 6 8 8 7 7 8 11 9 8 8 7 7 7 7 8 7 6 7 8 10
5 4 1 1 3 2 5 4 3 2 1 2 5 6 4 2 5 5 6 5 5 7 7 8 9 10 11 10 10 10 10 9 7 8 9 8 8 6 7 7 8 16 21 24
Wind_Direction
265 58 219 207 157 138 224 245 269 267 182 250 234 272 282 244 230 219 201 200 199 199 195 171 167 157 152 160 162 166 154 167 131 151 121 115 103 89 60 54 38 37 25 26
19 231 169 125 109 170 247 275 266 274 186 357 298 288 298 277 229 197 193 204 201 191 165 167 162 164 166 169 179 175 171 161 140 123 140 130 139 114 114 85 53 46 31 28
183 252 138 127 236 252 243 216 265 248 329 288 307 285 311 308 352 93 193 202 191 187 173 172 174 178 165 177 181 183 175 165 154 144 123 99 86 80 83 56 65 40 48 38
238 163 178 219 250 182 286 182 253 302 34 288 60 280 301 228 232 238 207 190 202 185 175 175 174 178 179 184 175 173 169 160 159 149 136 161 166 136 160 130 117 73 59 41
257 168 200 238 225 161 231 275 249 179 210 10 288 113 270 232 254 249 233 226 212 200 173 179 183 180 177 158 171 166 154 147 130 110 117 121 112 124 144 112 113 105 63 47
245 342 211 214 197 207 5 313 13 88 102 348 232 148 277 220 198 195 95 224 203 194 179 172 167 152 160 146 144 148 145 138 126 122 110 140 149 148 129 124 119 106 90 54
217 231 186 160 163 15 66 53 322 340 346 230 211 166 239 229 173 155 127 304 199 189 173 164 163 161 141 147 146 146 147 148 150 133 106 136 139 135 138 139 139 133 116 82
210 313 183 178 207 186 191 149 170 274 254 263 269 243 259 44 99 96 89 93 140 166 188 176 163 152 148 154 155 154 159 159 165 153 142 114 133 138 149 148 137 141 145 168
248 265 60 79 35 134 171 182 193 245 283 306 234 290 346 68 97 92 124 121 155 165 173 160 139 142 152 157 167 167 162 167 170 165 156 168 147 137 145 134 128 119 133 140
285 298 197 211 43 337 183 191 98 95 271 260 281 267 237 176 123 75 31 351 293 98 65 67 66 60 48 79 130 140 146 154 158 155 153 154 134 111 109 99 112 115 125 105
145 162 265 111 201 192 123 239 220 148 165 250 303 269 223 101 60 58 33 24 11 75 68 68 61 53 48 43 46 70 102 128 143 144 146 141 139 132 140 176 180 180 191 231
220 188 246 228 268 247 175 198 169 168 215 223 235 254 53 77 64 49 33 53 58 60 55 47 47 42 38 35 32 34 37 63 98 116 115 112 95 217 216 214 187 153 188 336
174 244 317 316 304 359 185 164 117 9 55 224 246 229 83 73 62 47 70 71 64 60 51 40 40 39 34 29 24 18 18 23 33 42 49 15 279 232 229 218 169 260 241 246
155 204 210 251 256 138 213 204 202 200 206 251 221 256 187 87 87 82 82 79 79 72 64 58 46 40 33 20 23 21 16 11 354 347 270 248 252 114 339 228 212 221 242 273
188 257 228 257 274 276 273 267 240 232 243 241 271 261 340 101 104 81 84 82 72 63 57 52 43 28 36 27 357 5 6 352 348 346 337 314 308 217 257 286 261 287 289 273
189 254 241 267 258 262 270 264 258 258 254 257 260 259 80 89 81 65 53 52 58 52 50 42 37 30 21 15 4 354 350 339 335 331 318 305 289 306 245 238 250 264 262 261
181 203 192 270 246 271 267 251 235 234 56 323 288 45 34 84 67 40 33 41 41 32 28 30 21 13 4 9 3 347 333 313 324 311 297 286 290 281 288 291 284 272 267 267
212 195 226 272 247 252 110 51 78 104 70 44 77 52 30 85 103 79 58 40 41 29 28 18 5 351 355 360 358 332 326 322 319 314 316 320 313 301 294 290 281 278 269 264
220 215 228 235 218 280 188 72 94 65 101 28 67 31 359 22 145 84 57 52 38 24 12 346 323 319 337 334 308 316 325 331 327 310 321 322 314 304 294 288 283 278 281 279
210 215 212 195 237 248 69 71 10 255 206 124 109 65 359 310 199 102 27 27 15 359 331 326 312 315 317 301 286 324 313 313 307 308 304 296 296 290 283 277 277 270 263 269
163 208 225 238 247 145 346 320 301 201 85 95 80 60 40 54 23 17 19 13 358 341 338 350 332 307 309 305 319 301 297 295 287 297 306 306 302 298 275 266 262 261 263 272
185 199 206 229 238 239 340 227 226 110 57 81 69 45 37 352 338 355 360 343 336 328 329 325 326 316 302 312 320 304 298 294 298 300 299 293 292 295 297 289 275 263 259 265
237 340 311 9 41 82 37 82 64 50 70 38 23 355 355 339 344 339 341 334 323 319 318 312 295 298 300 304 313 327 318 311 309 306 301 297 298 297 296 292 288 281 256 255
109 12 90 162 154 114 93 70 64 62 63 38 346 359 1 353 341 332 326 325 318 295 306 278 305 302 295 314 325 303 306 311 303 297 291 289 281 292 291 293 291 287 273 263
345 333 92 65 112 109 85 70 72 64 39 13 335 334 343 355 332 299 297 300 293 302 305 311 311 309 316 313 303 300 310 303 296 297 290 285 288 283 285 280 275 278 269 261
350 25 348 235 38 78 97 94 66 77 294 307 345 339 325 276 288 286 283 278 290 291 319 315 312 312 311 308 305 305 304 300 305 308 303 295 298 292 287 287 289 285 288 290